#timestamp,LO_Frequency,Hit,StdDev 
1655632815.4,286046999.7,N
1655632835.3,286047002.4,N
1655632855.1,286047001.9,N
1655632875.8,286047003.9,N
1655632895.7,286047003.4,N
1655632915.5,286047004.8,N
1655632935.3,286047005.1,N
1655632955.2,286047005.0,N
1655632975.0,286047004.5,N
1655632975.9,286047004.5,N
1655632995.8,286047004.6,N
1655633015.6,286047005.0,N
1655633035.4,286047007.2,N
1655633055.3,286047007.4,N
1655633075.1,286047007.5,N
1655633095.9,286047007.2,N
1655633115.7,286047007.6,N
1655633135.5,286047005.1,N
1655633155.4,286047004.7,N
1655633175.2,286047005.9,N
1655633195.0,286047005.8,N
1655633195.9,286047005.8,N
1655633215.8,286047005.7,N
1655633235.6,286047004.5,N
1655633255.5,286047004.6,N
1655633275.3,286047005.0,N
1655633295.1,286047004.8,N
1655633315.9,286047005.1,N
1655633335.7,286047004.9,N
1655633355.5,286047005.3,N
1655633375.4,286047007.4,Y
1655633395.2,286047002.4,P
1655633415.1,286047000.2,N
1655633416.0,286047000.2,N
1655633435.8,286046998.3,N
1655633455.6,286046997.8,N
1655633475.5,286046997.7,N
1655633495.3,286046997.3,N
1655633515.1,286046998.4,N
1655633535.9,286047000.8,N
1655633555.7,286047001.1,N
1655633575.6,286046998.2,N
1655633595.4,286047000.1,N
1655633615.2,286047000.0,N
1655633635.1,286047000.7,N
1655633636.0,286047000.7,N
1655633655.8,286047000.9,N
1655633675.7,286047001.0,N
1655633695.5,286047000.8,N
1655633715.3,286047000.7,N
1655633735.2,286047000.8,N
1655633755.0,286047000.3,N
1655633755.9,286047000.3,N
1655633775.7,286047000.1,N
1655633795.6,286047002.6,N
1655633815.4,286047002.3,N
1655633835.3,286047002.7,N
1655633855.1,286047002.2,N
1655633856.0,286047002.2,N
1655633875.8,286047002.8,N
1655633895.7,286047001.8,N
1655633915.5,286047001.4,N
1655633935.4,286047001.4,N
1655633955.2,286047001.9,N
1655633975.0,286047001.8,N
1655633975.9,286047001.8,N
1655633995.8,286047002.5,N
1655634015.6,286046998.5,N
1655634035.4,286047001.0,N
1655634055.3,286046998.6,N
1655634075.1,286047000.3,N
1655634095.9,286047000.2,N
1655634115.7,286047000.1,N
1655634135.5,286047002.8,N
1655634155.4,286047002.8,N
1655634175.2,286047002.8,N
1655634195.0,286047000.5,N
1655634196.0,286047000.5,N
1655634215.8,286047002.3,N
1655634235.6,286047002.5,N
1655634255.5,286047002.4,N
1655634275.3,286047002.2,N
1655634295.1,286046999.9,N
1655634315.9,286047002.4,N
1655634335.7,286047001.9,N
1655634355.6,286047002.6,N
1655634375.4,286047002.7,N
1655634395.2,286047002.8,N
1655634415.1,286047002.7,N
1655634416.0,286047002.7,N
1655634435.8,286047002.1,N
1655634455.7,286047002.6,N
1655634475.5,286047000.1,N
1655634495.3,286046999.8,N
1655634515.2,286047000.4,N
1655634535.0,286047002.3,N
1655634535.9,286047002.3,N
1655634555.7,286047001.7,N
1655634575.6,286047001.6,N
1655634595.4,286047002.2,N
1655634615.3,286047002.0,N
1655634635.1,286047002.1,N
1655634636.0,286047002.1,N
1655634655.8,286047001.8,N
1655634675.7,286047001.7,N
1655634695.5,286047004.0,Y
1655634715.4,286047001.5,P
1655634735.2,286046999.7,N
1655634755.0,286047002.3,N
1655634755.9,286047002.3,N
1655634775.8,286047002.6,N
1655634795.6,286046999.8,N
1655634815.4,286047002.2,N
1655634835.3,286047001.8,N
1655634855.1,286047001.7,N
1655634875.9,286047002.6,N
1655634895.7,286047002.8,N
1655634915.5,286047002.6,N
1655634935.4,286047001.6,N
1655634955.2,286046999.7,N
1655634975.1,286047000.2,N
1655634976.0,286047000.2,N
1655634995.8,286047000.2,N
1655635015.6,286047000.1,N
1655635035.5,286047000.3,N
1655635055.3,286047002.7,N
1655635075.1,286047002.7,N
1655635095.9,286046999.7,N
1655635115.7,286046999.7,N
1655635135.6,286047002.8,N
1655635155.4,286046999.7,N
1655635175.2,286047002.6,N
1655635195.1,286047002.5,N
1655635196.0,286047002.5,N
1655635215.8,286047000.1,N
1655635235.7,286046999.7,N
1655635255.5,286046999.9,N
1655635275.3,286047002.6,N
1655635295.2,286046999.9,N
1655635315.0,286047000.3,N
1655635315.9,286047000.3,N
1655635335.7,286047000.3,N
1655635355.6,286047002.6,N
1655635375.4,286046999.7,N
1655635395.3,286046999.7,N
1655635415.1,286046999.9,N
1655635416.0,286046999.9,N
1655635435.8,286047000.0,N
1655635455.7,286047002.7,N
1655635475.5,286046999.8,N
1655635495.3,286047002.3,N
1655635515.2,286047002.3,N
1655635535.0,286046999.8,N
1655635535.9,286046999.8,N
1655635555.8,286047002.8,N
1655635575.6,286047000.2,N
1655635595.4,286047002.0,N
1655635615.3,286047001.9,N
1655635635.1,286047002.0,N
1655635655.9,286046999.7,N
1655635675.7,286047002.4,N
1655635695.5,286046999.9,N
1655635715.4,286047000.4,N
1655635735.2,286047000.2,N
1655635755.0,286047001.4,N
1655635755.9,286047001.4,N
1655635775.8,286047004.4,Y
1655635795.6,286047002.5,P
1655635815.5,286047002.8,P
1655635835.3,286046999.9,N
1655635855.1,286046999.9,N
1655635875.9,286047000.5,N
1655635895.7,286047000.0,N
1655635915.5,286046999.8,N
1655635935.4,286047000.5,N
1655635955.2,286047001.2,N
1655635975.1,286046999.9,N
1655635976.0,286046999.9,N
1655635995.8,286047000.0,N
1655636015.6,286047000.3,N
1655636035.5,286047001.0,N
1655636055.3,286047000.6,N
1655636075.1,286047000.7,N
1655636095.9,286047000.4,N
1655636115.7,286047000.0,N
1655636135.6,286047000.4,N
1655636155.4,286047000.8,N
1655636175.2,286047000.7,N
1655636195.1,286047000.4,N
1655636196.0,286047000.4,N
1655636215.8,286047000.7,N
1655636235.7,286047001.2,N
1655636255.5,286047000.9,N
1655636275.3,286047001.0,N
1655636295.2,286046999.9,N
1655636315.9,286047001.0,N
1655636335.7,286047000.9,N
1655636355.6,286047001.0,N
1655636375.4,286047001.1,N
1655636395.3,286047000.9,N
